Time,TemperatureF,DewpointF,PressureIn,WindDirection,WindDirectionDegrees,WindSpeedMPH,WindSpeedGustMPH,Humidity,HourlyPrecipIn,Conditions,Clouds,dailyrainin,SoftwareType,DateUTC
2013-03-14 00:02:00,29.3,28.0,29.77,North,352,0.0,1.0,96,0.00,,,0.00,weatherlink.com 1.10,2013-03-14 04:02:00,
2013-03-14 00:18:00,29.0,28.0,29.76,NNW,346,0.0,1.0,96,0.00,,,0.00,weatherlink.com 1.10,2013-03-14 04:18:00,
2013-03-14 00:35:00,29.1,28.0,29.76,NW,309,0.0,0.0,95,0.00,,,0.00,weatherlink.com 1.10,2013-03-14 04:35:00,
2013-03-14 00:48:00,29.1,28.0,29.76,North,9,1.0,2.0,94,0.00,,,0.00,weatherlink.com 1.10,2013-03-14 04:48:00,
2013-03-14 01:03:00,29.2,28.0,29.76,NW,323,0.0,0.0,94,0.00,,,0.00,weatherlink.com 1.10,2013-03-14 05:03:00,
2013-03-14 01:18:00,29.2,28.0,29.76,North,7,0.0,0.0,93,0.00,,,0.00,weatherlink.com 1.10,2013-03-14 05:18:00,
2013-03-14 01:33:00,29.3,28.0,29.76,NE,46,0.0,0.0,93,0.00,,,0.00,weatherlink.com 1.10,2013-03-14 05:33:00,
2013-03-14 01:48:00,29.7,27.0,29.76,NNW,332,0.0,0.0,91,0.00,,,0.00,weatherlink.com 1.10,2013-03-14 05:48:00,
2013-03-14 02:03:00,29.7,27.0,29.76,WSW,252,0.0,0.0,90,0.00,,,0.00,weatherlink.com 1.10,2013-03-14 06:03:00,
2013-03-14 02:18:00,29.4,27.0,29.76,NNW,343,0.0,0.0,90,0.00,,,0.00,weatherlink.com 1.10,2013-03-14 06:18:00,
2013-03-14 02:33:00,29.5,26.0,29.76,SSW,210,0.0,2.0,87,0.00,,,0.00,weatherlink.com 1.10,2013-03-14 06:33:00,
2013-03-14 02:48:00,30.1,25.0,29.75,West,269,0.0,4.0,80,0.00,,,0.00,weatherlink.com 1.10,2013-03-14 06:48:00,
2013-03-14 03:03:00,30.2,25.0,29.75,SW,215,0.0,6.0,81,0.00,,,0.00,weatherlink.com 1.10,2013-03-14 07:03:00,
2013-03-14 03:18:00,30.3,25.0,29.75,SW,217,0.0,6.0,80,0.00,,,0.00,weatherlink.com 1.10,2013-03-14 07:18:00,
2013-03-14 03:33:00,30.3,25.0,29.75,SW,230,0.0,5.0,79,0.00,,,0.00,weatherlink.com 1.10,2013-03-14 07:33:00,
2013-03-14 03:48:00,30.5,24.0,29.74,SW,229,0.0,8.0,78,0.00,,,0.00,weatherlink.com 1.10,2013-03-14 07:48:00,
2013-03-14 04:03:00,30.3,24.0,29.74,WSW,248,0.0,4.0,77,0.00,,,0.00,weatherlink.com 1.10,2013-03-14 08:03:00,
2013-03-14 04:18:00,30.2,24.0,29.74,NNW,328,1.0,5.0,77,0.00,,,0.00,weatherlink.com 1.10,2013-03-14 08:18:00,
2013-03-14 04:33:00,30.4,22.0,29.74,SW,227,2.0,8.0,71,0.00,,,0.00,weatherlink.com 1.10,2013-03-14 08:33:00,
2013-03-14 04:48:00,30.2,23.0,29.74,SW,219,0.0,4.0,74,0.00,,,0.00,weatherlink.com 1.10,2013-03-14 08:48:00,
2013-03-14 05:03:00,29.6,23.0,29.75,SW,219,1.0,8.0,76,0.00,,,0.00,weatherlink.com 1.10,2013-03-14 09:03:00,
2013-03-14 05:18:00,29.7,22.0,29.75,SW,217,2.0,7.0,72,0.00,,,0.00,weatherlink.com 1.10,2013-03-14 09:18:00,
2013-03-14 05:33:00,29.7,21.0,29.75,SW,219,1.0,4.0,71,0.00,,,0.00,weatherlink.com 1.10,2013-03-14 09:33:00,
2013-03-14 05:48:00,29.4,21.0,29.75,WSW,257,0.0,5.0,72,0.00,,,0.00,weatherlink.com 1.10,2013-03-14 09:48:00,
2013-03-14 06:03:00,29.3,21.0,29.75,WSW,256,0.0,2.0,72,0.00,,,0.00,weatherlink.com 1.10,2013-03-14 10:03:00,
2013-03-14 06:18:00,29.3,21.0,29.75,West,273,0.0,1.0,72,0.00,,,0.00,weatherlink.com 1.10,2013-03-14 10:18:00,
2013-03-14 06:33:00,29.2,21.0,29.75,West,261,0.0,1.0,72,0.00,,,0.00,weatherlink.com 1.10,2013-03-14 10:33:00,
2013-03-14 06:48:00,29.2,22.0,29.76,West,279,0.0,1.0,73,0.00,,,0.00,weatherlink.com 1.10,2013-03-14 10:48:00,
2013-03-14 07:03:00,29.4,21.0,29.76,West,269,1.0,2.0,71,0.00,,,0.00,weatherlink.com 1.10,2013-03-14 11:03:00,
2013-03-14 07:18:00,29.4,21.0,29.77,WNW,299,0.0,2.0,71,0.00,,,0.00,weatherlink.com 1.10,2013-03-14 11:18:00,
2013-03-14 07:33:00,28.6,20.0,29.77,WSW,246,1.0,5.0,71,0.00,,,0.00,weatherlink.com 1.10,2013-03-14 11:33:00,
2013-03-14 07:48:00,27.8,21.0,29.78,NW,319,1.0,10.0,74,0.00,,,0.00,weatherlink.com 1.10,2013-03-14 11:48:00,
2013-03-14 08:03:00,27.3,20.0,29.78,West,266,1.0,4.0,73,0.00,,,0.00,weatherlink.com 1.10,2013-03-14 12:03:00,
2013-03-14 08:18:00,27.6,19.0,29.78,WNW,294,0.0,1.0,69,0.00,,,0.00,weatherlink.com 1.10,2013-03-14 12:18:00,
2013-03-14 08:33:00,28.0,19.0,29.78,SE,126,1.0,2.0,68,0.00,,,0.00,weatherlink.com 1.10,2013-03-14 12:33:00,
2013-03-14 08:48:00,28.1,20.0,29.79,SW,218,0.0,6.0,72,0.00,,,0.00,weatherlink.com 1.10,2013-03-14 12:48:00,
2013-03-14 09:03:00,27.5,21.0,29.79,NE,56,1.0,3.0,77,0.00,,,0.00,weatherlink.com 1.10,2013-03-14 13:03:00,
2013-03-14 09:18:00,27.1,21.0,29.79,SE,132,0.0,6.0,78,0.00,,,0.00,weatherlink.com 1.10,2013-03-14 13:18:00,
2013-03-14 09:33:00,26.9,19.0,29.80,NNW,331,0.0,6.0,72,0.00,,,0.00,weatherlink.com 1.10,2013-03-14 13:33:00,
2013-03-14 09:48:00,26.8,19.0,29.80,NE,38,1.0,4.0,72,0.00,,,0.00,weatherlink.com 1.10,2013-03-14 13:48:00,
2013-03-14 10:03:00,27.3,19.0,29.80,East,92,4.0,6.0,71,0.00,,,0.00,weatherlink.com 1.10,2013-03-14 14:03:00,
2013-03-14 10:18:00,27.1,20.0,29.79,NNE,23,1.0,6.0,74,0.00,,,0.00,weatherlink.com 1.10,2013-03-14 14:18:00,
2013-03-14 10:33:00,28.0,18.0,29.79,NE,34,3.0,5.0,67,0.00,,,0.00,weatherlink.com 1.10,2013-03-14 14:33:00,
2013-03-14 10:48:00,28.8,21.0,29.78,NNW,340,0.0,4.0,72,0.00,,,0.00,weatherlink.com 1.10,2013-03-14 14:48:00,
2013-03-14 11:04:00,28.6,19.0,29.79,NNE,13,6.0,7.0,67,0.00,,,0.00,weatherlink.com 1.10,2013-03-14 15:04:00,
2013-03-14 11:19:00,27.7,19.0,29.79,North,5,6.0,7.0,69,0.00,,,0.00,weatherlink.com 1.10,2013-03-14 15:19:00,
2013-03-14 11:34:00,26.8,19.0,29.79,North,5,5.0,7.0,71,0.00,,,0.00,weatherlink.com 1.10,2013-03-14 15:34:00,
2013-03-14 11:49:00,26.2,18.0,29.79,North,349,6.0,8.0,70,0.00,,,0.00,weatherlink.com 1.10,2013-03-14 15:49:00,
2013-03-14 12:04:00,25.4,18.0,29.79,NNE,15,4.0,7.0,74,0.00,,,0.00,weatherlink.com 1.10,2013-03-14 16:04:00,
2013-03-14 12:19:00,25.0,17.0,29.79,NNW,340,0.0,8.0,71,0.00,,,0.00,weatherlink.com 1.10,2013-03-14 16:19:00,
2013-03-14 12:34:00,25.9,16.0,29.79,North,356,3.0,10.0,65,0.00,,,0.00,weatherlink.com 1.10,2013-03-14 16:34:00,
2013-03-14 12:49:00,26.5,14.0,29.79,NNW,338,3.0,8.0,60,0.00,,,0.00,weatherlink.com 1.10,2013-03-14 16:49:00,
2013-03-14 13:04:00,26.8,14.0,29.79,North,358,4.0,10.0,59,0.00,,,0.00,weatherlink.com 1.10,2013-03-14 17:04:00,
2013-03-14 13:19:00,27.0,13.0,29.79,NNW,338,7.0,9.0,57,0.00,,,0.00,weatherlink.com 1.10,2013-03-14 17:19:00,
2013-03-14 13:34:00,27.1,14.0,29.79,NE,40,4.0,10.0,57,0.00,,,0.00,weatherlink.com 1.10,2013-03-14 17:34:00,
2013-03-14 13:49:00,26.9,13.0,29.79,North,2,4.0,14.0,56,0.00,,,0.00,weatherlink.com 1.10,2013-03-14 17:49:00,
2013-03-14 14:04:00,26.5,13.0,29.79,North,351,3.0,7.0,57,0.00,,,0.00,weatherlink.com 1.10,2013-03-14 18:04:00,
2013-03-14 14:19:00,25.8,12.0,29.79,NNW,338,5.0,11.0,56,0.00,,,0.00,weatherlink.com 1.10,2013-03-14 18:19:00,
2013-03-14 14:34:00,25.0,11.0,29.80,NNW,343,3.0,11.0,55,0.00,,,0.00,weatherlink.com 1.10,2013-03-14 18:34:00,
2013-03-14 14:49:00,24.2,9.0,29.81,NNW,347,5.0,11.0,53,0.00,,,0.00,weatherlink.com 1.10,2013-03-14 18:49:00,
2013-03-14 15:04:00,23.8,10.0,29.81,North,351,1.0,11.0,55,0.00,,,0.00,weatherlink.com 1.10,2013-03-14 19:04:00,
2013-03-14 15:19:00,23.6,10.0,29.82,NNW,333,4.0,10.0,57,0.00,,,0.00,weatherlink.com 1.10,2013-03-14 19:19:00,
2013-03-14 15:34:00,23.1,9.0,29.83,NNW,343,4.0,12.0,55,0.00,,,0.00,weatherlink.com 1.10,2013-03-14 19:34:00,
2013-03-14 15:49:00,22.8,9.0,29.83,NW,321,0.0,11.0,55,0.00,,,0.00,weatherlink.com 1.10,2013-03-14 19:49:00,
2013-03-14 16:04:00,22.8,9.0,29.84,NNW,338,6.0,10.0,55,0.00,,,0.00,weatherlink.com 1.10,2013-03-14 20:04:00,
2013-03-14 16:19:00,22.9,9.0,29.84,NNW,344,3.0,8.0,56,0.00,,,0.00,weatherlink.com 1.10,2013-03-14 20:19:00,
2013-03-14 16:34:00,22.8,9.0,29.85,NW,314,1.0,10.0,56,0.00,,,0.00,weatherlink.com 1.10,2013-03-14 20:34:00,
2013-03-14 16:49:00,23.1,9.0,29.86,NNW,330,1.0,9.0,56,0.00,,,0.00,weatherlink.com 1.10,2013-03-14 20:49:00,
2013-03-14 17:04:00,22.3,9.0,29.87,NW,323,3.0,9.0,58,0.00,,,0.00,weatherlink.com 1.10,2013-03-14 21:04:00,
2013-03-14 17:20:00,21.7,10.0,29.88,NNW,327,2.0,7.0,60,0.00,,,0.00,weatherlink.com 1.10,2013-03-14 21:20:00,
2013-03-14 17:35:00,21.4,9.0,29.88,NW,311,2.0,8.0,60,0.00,,,0.00,weatherlink.com 1.10,2013-03-14 21:35:00,
2013-03-14 17:50:00,21.5,9.0,29.88,North,354,1.0,7.0,59,0.00,,,0.00,weatherlink.com 1.10,2013-03-14 21:50:00,
2013-03-14 18:05:00,21.7,7.0,29.89,WNW,292,2.0,8.0,54,0.00,,,0.00,weatherlink.com 1.10,2013-03-14 22:05:00,
2013-03-14 18:20:00,21.9,7.0,29.89,NW,323,2.0,7.0,54,0.00,,,0.00,weatherlink.com 1.10,2013-03-14 22:20:00,
2013-03-14 18:35:00,21.6,8.0,29.90,NNW,339,1.0,6.0,56,0.00,,,0.00,weatherlink.com 1.10,2013-03-14 22:35:00,
2013-03-14 18:50:00,21.6,8.0,29.90,NNW,346,4.0,6.0,56,0.00,,,0.00,weatherlink.com 1.10,2013-03-14 22:50:00,
2013-03-14 19:05:00,21.7,9.0,29.90,NNW,331,4.0,5.0,58,0.00,,,0.00,weatherlink.com 1.10,2013-03-14 23:05:00,
2013-03-14 19:20:00,21.7,9.0,29.91,NNW,347,1.0,4.0,58,0.00,,,0.00,weatherlink.com 1.10,2013-03-14 23:20:00,
2013-03-14 19:35:00,21.6,9.0,29.91,NNW,338,2.0,5.0,59,0.00,,,0.00,weatherlink.com 1.10,2013-03-14 23:35:00,
2013-03-14 19:50:00,21.5,9.0,29.91,NNW,342,3.0,6.0,60,0.00,,,0.00,weatherlink.com 1.10,2013-03-14 23:50:00,
2013-03-14 20:05:00,21.4,10.0,29.91,NNW,334,0.0,7.0,62,0.00,,,0.00,weatherlink.com 1.10,2013-03-15 00:05:00,
2013-03-14 20:20:00,21.2,10.0,29.92,NNW,342,2.0,6.0,63,0.00,,,0.00,weatherlink.com 1.10,2013-03-15 00:20:00,
2013-03-14 20:35:00,21.1,11.0,29.92,NNW,346,1.0,6.0,64,0.00,,,0.00,weatherlink.com 1.10,2013-03-15 00:35:00,
2013-03-14 20:50:00,20.8,11.0,29.92,NNW,333,0.0,6.0,67,0.00,,,0.00,weatherlink.com 1.10,2013-03-15 00:50:00,
2013-03-14 21:05:00,20.8,11.0,29.92,North,351,2.0,8.0,66,0.00,,,0.00,weatherlink.com 1.10,2013-03-15 01:05:00,
2013-03-14 21:20:00,20.8,11.0,29.93,NNW,334,1.0,7.0,66,0.00,,,0.00,weatherlink.com 1.10,2013-03-15 01:20:00,
2013-03-14 21:35:00,20.6,11.0,29.93,NW,308,0.0,8.0,67,0.00,,,0.00,weatherlink.com 1.10,2013-03-15 01:35:00,
2013-03-14 21:50:00,20.5,10.0,29.93,NW,306,6.0,8.0,65,0.00,,,0.00,weatherlink.com 1.10,2013-03-15 01:50:00,
2013-03-14 22:05:00,20.4,10.0,29.93,NW,317,3.0,8.0,64,0.00,,,0.00,weatherlink.com 1.10,2013-03-15 02:05:00,
2013-03-14 22:20:00,20.1,11.0,29.94,North,349,6.0,8.0,68,0.00,,,0.00,weatherlink.com 1.10,2013-03-15 02:20:00,
2013-03-14 22:35:00,19.6,11.0,29.94,NNW,340,3.0,8.0,70,0.00,,,0.00,weatherlink.com 1.10,2013-03-15 02:35:00,
2013-03-14 22:50:00,19.8,10.0,29.94,NNW,331,6.0,7.0,66,0.00,,,0.00,weatherlink.com 1.10,2013-03-15 02:50:00,
2013-03-14 23:05:00,19.7,9.0,29.94,NW,306,8.0,9.0,63,0.00,,,0.00,weatherlink.com 1.10,2013-03-15 03:05:00,
2013-03-14 23:20:00,19.4,6.0,29.95,NNW,337,7.0,11.0,57,0.00,,,0.00,weatherlink.com 1.10,2013-03-15 03:20:00,
2013-03-14 23:36:00,19.2,7.0,29.95,NW,305,2.0,10.0,58,0.00,,,0.00,weatherlink.com 1.10,2013-03-15 03:36:00,
2013-03-14 23:51:00,19.0,6.0,29.95,NNW,338,4.0,11.0,58,0.00,,,0.00,weatherlink.com 1.10,2013-03-15 03:51:00,